Regional Weather Roundup
Issued by NWS Columbia, SC

Home | Current Version | Previous Version | Text Only | Print | Product List | Glossary On
Versions: 1 2 3 4 5 6 7 8 9 10 11 12 13 14 15 16 17 18 19 20 21 22 23 24 25 26 27 28 29 30 31 32 33 34 35 36 37 38 39 40 41 42 43 44 45 46 47 48 49 50
000
ASUS42 KCAE 040410
RWRCAE
REGIONAL WEATHER ROUNDUP
NATIONAL WEATHER SERVICE COLUMBIA SC
1200 AM EDT TUE AUG 04 2015

NOTE: "FAIR" INDICATES FEW OR NO CLOUDS BELOW 12,000 FEET WITH NO
SIGNIFICANT WEATHER AND/OR OBSTRUCTIONS TO VISIBILITY.

NOT ALL STATIONS ARE QUALITY CONTROLLED BY THE NATIONAL
WEATHER SERVICE. USE DATA WITH CAUTION...ESPECIALLY
DEWPOINT OBSERVATIONS.

SCZ001>056-GAZ040-063>065-077-040500-
...UPSTATE SOUTH CAROLINA...

CITY           SKY/WX    TMP DP  RH WIND       PRES   REMARKS
ANDERSON       CLEAR     78  69  73 SE5       29.96R
CLEMSON        CLEAR     80  69  69 SE3       29.97R
GREENVILLE     CLEAR     81  68  64 S5        29.99R
GREENWOOD      CLEAR     77  71  82 SE6       29.98R
GREER          CLEAR     78  68  71 S8        29.96R
ROCK HILL      CLEAR     77  70  79 S7        29.99R
LAURENS        CLEAR     79  75  89 S6        29.97R


...CENTRAL SOUTH CAROLINA...

CITY           SKY/WX    TMP DP  RH WIND       PRES   REMARKS
COLUMBIA APT   PTCLDY    78  72  81 SE5       29.95R
COLUMBIA OWENS CLEAR     78  72  81 CALM      29.96R
DARLINGTON     CLEAR     75  70  83 CALM      29.98R
FLORENCE       PTCLDY    78  75  90 CALM      29.96R
MCENTIRE ANGB  CLEAR     73  72  95 E3        29.96R
ORANGEBURG     PTCLDY    76  73  91 CALM      29.95R
SUMTER SHAW    MOCLDY    77  72  84 N2        29.94R
NEWBERRY       CLEAR     77  70  78 SE3       29.99R


...EASTERN AND COASTAL SOUTH CAROLINA...

CITY           SKY/WX    TMP DP  RH WIND       PRES   REMARKS
MYRTLE BEACH   CLOUDY    82  75  78 SE10      29.98S
N MYRTLE BCH   PTCLDY    82  75  79 S13       29.97S
MARION         FAIR      77  72  83 CALM      29.97R
HARTSVILLE     FAIR      73  70  88 CALM      29.97R
FLORENCE       PTCLDY    78  75  90 CALM      29.96R
DARLINGTON     CLEAR     75  70  83 CALM      29.98R
CHARLESTON APT RAIN      78  75  90 S12G18    29.93S
MOUNT PLEASANT LGT RAIN  79  77  94 SE3       29.93F
WALTERBORO     MOCLDY    79  75  89 CALM      29.94S
BEAUFORT       MOCLDY    79  76  90 VRB3      29.90F


...EASTERN GEORGIA...

CITY           SKY/WX    TMP DP  RH WIND       PRES   REMARKS
AUGUSTA BUSH F CLEAR     74  72  93 CALM      29.94R
AUGUSTA DANIEL CLEAR     78  72  81 SE3       29.96R
THOMSON        CLEAR     79  75  88 CALM      29.99R
WASHINGTON     FAIR      81  79  94 SE3       29.96R
SYLVANIA       PTCLDY    77  77  99 CALM      29.94S
STATESBORO     CLEAR     76  32  20 CALM      29.93S
SAVANNAH       PTCLDY    77  74  90 N3        29.91S


...SOUTHERN NORTH CAROLINA...

CITY           SKY/WX    TMP DP  RH WIND       PRES   REMARKS
CHARLOTTE      CLEAR     79  68  69 S8        29.98R
MONROE         CLEAR     76  69  79 CALM      29.97R
WADESBORO      CLEAR     77  68  73 CALM      29.97R
ROCKINGHAM     CLEAR     76  70  81 SE5       29.98R
RUTHERFORDTON  CLEAR     76  64  67 CALM      29.99R
ASHEVILLE      CLEAR     73  57  57 CALM      30.06R

$$



USA.gov is the U.S. government's official web portal to all federal, state and local government web resources and services.